Regional Weather Roundup
Issued by NWS Cleveland, OH

Home | Current Version | Previous Version | Graphics & Text | Print | Product List | Glossary On
Versions: 1 2 3 4 5 6 7 8 9 10 11 12 13 14 15 16 17 18 19 20 21 22 23 24 25 26 27 28 29 30 31 32 33 34 35 36 37 38 39 40 41 42 43 44 45 46 47 48 49 50
000
ASUS41 KCLE 300702
RWRCLE
OHIO REGIONAL WEATHER ROUNDUP
NATIONAL WEATHER SERVICE CLEVELAND, OH
300 AM EDT WED JUL 30 2014

NOTE: "FAIR" INDICATES FEW OR NO CLOUDS BELOW 12,000 FEET WITH NO
SIGNIFICANT WEATHER AND/OR OBSTRUCTIONS TO VISIBILITY.

OHZ001>008-015>018-024>027-034-035-043-044-300800-
   NORTHWEST OHIO

CITY           SKY/WX    TMP DP  RH WIND       PRES   REMARKS
DEFIANCE       MOCLDY    57  56  96 CALM      30.00S FOG
FINDLAY        CLEAR     59  56  89 SW6       29.99S
TOLEDO EXPRESS MOCLDY    58  56  93 CALM      29.98S
TOLEDO EXEC    PTCLDY    59  55  87 SW6       29.99S
LIMA           CLEAR     60  56  86 SW5       30.01S
$$

OHZ009>014-019>023-028>033-038-089-300800-
   NORTHEAST OHIO

CITY           SKY/WX    TMP DP  RH WIND       PRES   REMARKS
CLE-HOPKINS    MOCLDY    60  53  77 SW8       29.99F
CLE-LAKEFRONT  PTCLDY    63  55  75 SW10      29.96S
CUY CO. ARPT   NOT AVBL
LORAIN-ELYRIA  CLEAR     61  54  77 SW6       29.98F
ASHTABULA      PTCLDY    56  53  90 SW6       29.99F
AKRON-CANTON   PTCLDY    58  50  75 SW7       30.00F
WOOSTER        PTCLDY    57  52  83 SW7       30.01F
MANSFIELD      PTCLDY    56  54  93 S6        30.01F
YOUNGSTOWN     CLOUDY    59  52  77 S6        30.00F
$$

OHZ042-051>053-060>062-070>072-077>081-300800-
  SOUTHWEST OHIO

CITY           SKY/WX    TMP DP  RH WIND       PRES   REMARKS
CINC-COVINGTON PTCLDY    59  56  89 S3        30.06S
CINC-LUNKEN    PTCLDY    57  56  96 CALM      30.06S
HAMILTON       MOCLDY    58  57  97 CALM      30.06S
DAYTON         CLEAR     60  56  86 SW6       30.05R
WRIGHT-PAT AFB CLEAR     61  57  88 SW3       30.04S
DAYTON GENERAL MOCLDY    59  56  89 S3        30.04S
WILMINGTON     CLEAR     57  53  86 SW3       30.05S
$$

OHZ036-037-039>041-045>050-054>059-063>069-073>076-082>088-300800-
  CENTRAL AND SOUTHEAST OHIO

CITY           SKY/WX    TMP DP  RH WIND       PRES   REMARKS
COLUMBUS       MOCLDY    63  53  70 S5        30.03S
OSU AIRPORT    MOCLDY    61  55  81 S5        30.03S
BOLTON FIELD   NOT AVBL
RICKENBACK AFB CLOUDY    60  52  75 S5        30.03S
NEWARK         CLOUDY    58  55  90 CALM      30.03F
MARION         MOCLDY    60  56  86 CALM      30.02S
LANCASTER      CLOUDY    63  54  72 S3        30.04S
ZANESVILLE     CLOUDY    56  52  86 SW5       30.04F
NEW PHILLY     MOCLDY    55  54  96 SE3       30.03F
$$



USA.gov is the U.S. government's official web portal to all federal, state and local government web resources and services.